(41196) = 1999 VV224

Discovered at Socorro on 1999-11-05 by LINEAR.

Orbit

Orbit type: Main Belt

Note: WebGL enabled browser required.

epoch2023-09-13.0
epoch JD2460200.5
perihelion date2019-09-25.63013
perihelion JD2458752.13013
argument of perihelion (°)139.31730
ascending node (°)191.17176
inclination (°)12.28837
eccentricity0.0278906
perihelion distance (AU)2.9273175
Tisserand w.r.t. Jupiter3.2
ΔV w.r.t. Earth (km/sec)11.3
semimajor axis (AU)3.0113048
mean anomaly (°)273.18148
mean daily motion (°/day)0.18861310
aphelion distance (AU)3.095
period (years)5.23
P-vector [x]0.86736794
P-vector [y]-0.49368635
P-vector [z]-0.06282236
Q-vector [x]0.49595607
Q-vector [y]0.84701103
Q-vector [z]0.19131099
absolute magnitude14.66
phase slope0.15
uncertainty0
referenceMPEC 2024-A12
observations used1257
oppositions19
arc length (days)10917
first opposition used1993
last opposition used2023
residual rms (arc-secs)0.68
perturbers coarse indicatorM-v
perturbers precise indicator003Ek
first observation date used1993-09-15.0
last observation date used2023-08-06.0
computer nameMPCLINUX
JD of orbit computation2456966.774445
perihelion JD uncertainty (days)4.6724E-04
argument of perihelion uncertainty (°)9.2373E-05
ascending node uncertainty (°)1.8068E-05
inclination uncertainty (°)6.7691E-06
eccentricity uncertainty 5.4587E-08
perihelion distance uncertainty (AU)1.7035E-07
Minimum Orbit Intersection Distances (in AU)
for orbit epoch: 2460200.5, reference: E2024-A12
Mercury2.52126
Venus2.21362
Earth1.92883
Mars1.4376
Jupiter1.99653
Saturn6.086
Uranus15.3736
Neptune26.8717

Observations

1278 total observations over interval: 1993 09 15.14242 – 2023 08 06.296024
These data are available for download (format description).

Date (UT) J2000 RA J2000 Dec Magn Location Ref
1993 09 15.14242 21 50 45.39 -01 57 46.1   691 – Steward Observatory, Kitt Peak-Spacewatch MPS 35556
1993 09 15.17449 21 50 44.41 -01 58 01.6   691 – Steward Observatory, Kitt Peak-Spacewatch MPS 35556
1993 09 15.20686 21 50 43.39 -01 58 16.9 19.0 V 691 – Steward Observatory, Kitt Peak-Spacewatch MPS 35556
1998 08 27.20207 20 27 15.03 -03 51 46.9 18.6   704 – Lincoln Laboratory ETS, New Mexico MPS 35556
1998 08 27.21966 20 27 14.72 -03 51 51.4 18.6   704 – Lincoln Laboratory ETS, New Mexico MPS 35556
1998 08 27.23713 20 27 14.12 -03 52 00.3 19.0   704 – Lincoln Laboratory ETS, New Mexico MPS 35556
1998 08 27.25467 20 27 13.52 -03 52 04.7 19.0   704 – Lincoln Laboratory ETS, New Mexico MPS 35556
1998 08 27.27230 20 27 12.88 -03 52 13.5 19.0   704 – Lincoln Laboratory ETS, New Mexico MPS 35556
1999 10 09.34992 03 09 43.57 +09 40 02.6 18.7   704 – Lincoln Laboratory ETS, New Mexico MPS 35556
1999 10 09.36336 03 09 43.15 +09 39 56.4 18.9   704 – Lincoln Laboratory ETS, New Mexico MPS 35556
1999 10 09.37658 03 09 42.80 +09 39 50.4 19.0   704 – Lincoln Laboratory ETS, New Mexico MPS 35556
1999 10 09.39147 03 09 42.40 +09 39 44.7 19.4   704 – Lincoln Laboratory ETS, New Mexico MPS 35556
1999 10 09.40741 03 09 41.91 +09 39 38.6 19.6   704 – Lincoln Laboratory ETS, New Mexico MPS 35556
1999 11 05.32142 02 52 04.32 +06 27 23.2 19.1   704 – Lincoln Laboratory ETS, New Mexico MPS 16659
1999 11 05.33812 02 52 03.53 +06 27 15.6 19.0   704 – Lincoln Laboratory ETS, New Mexico MPS 16659
1999 11 05.35477 02 52 02.67 +06 27 08.6 19.3   704 – Lincoln Laboratory ETS, New Mexico MPS 16659
1999 11 17.26261 02 43 05.66 +05 13 50.3 18.4 R 703 – Catalina Sky Survey MPS 16659
1999 11 17.27487 02 43 05.21 +05 13 47.9 19.2 R 703 – Catalina Sky Survey MPS 16659
1999 11 17.28726 02 43 04.56 +05 13 43.4 18.8 R 703 – Catalina Sky Survey MPS 16659
1999 11 17.30044 02 43 04.04 +05 13 39.8 18.9 R 703 – Catalina Sky Survey MPS 16659
2000 12 30.48180 08 39 52.92 +01 47 20.8 19.1   608 – Haleakala-AMOS MPS 35556
2000 12 30.49279 08 39 52.55 +01 47 20.8 19.0   608 – Haleakala-AMOS MPS 35556
2000 12 30.50283 08 39 52.18 +01 47 20.8 19.2   608 – Haleakala-AMOS MPS 35556
2001 01 25.51763 08 21 05.06 +02 44 44.2 19.2   608 – Haleakala-AMOS MPS 35556
2001 01 25.52780 08 21 04.55 +02 44 47.0 19.2   608 – Haleakala-AMOS MPS 35556
2001 01 25.53781 08 21 04.10 +02 44 49.1 19.8   608 – Haleakala-AMOS MPS 35556
2001 01 26.24116 08 20 30.46 +02 47 47.8 18.7   704 – Lincoln Laboratory ETS, New Mexico MPS 35556
2001 01 26.25624 08 20 29.75 +02 47 51.4 18.9   704 – Lincoln Laboratory ETS, New Mexico MPS 35556
2001 01 26.27119 08 20 29.03 +02 47 55.6 19.0   704 – Lincoln Laboratory ETS, New Mexico MPS 35556
2001 01 26.28616 08 20 28.26 +02 47 59.2 18.7   704 – Lincoln Laboratory ETS, New Mexico MPS 35556
2001 01 26.30111 08 20 27.52 +02 48 03.7 18.9   704 – Lincoln Laboratory ETS, New Mexico MPS 35556
2002 02 16.35011 13 56 57.92 -11 07 41.7   807 – Cerro Tololo Observatory, La Serena MPS 51695
2002 02 16.35824 13 56 58.02 -11 07 40.6 20.1 V 807 – Cerro Tololo Observatory, La Serena MPS 51695
2002 02 16.36637 13 56 58.10 -11 07 39.9 19.5 V 807 – Cerro Tololo Observatory, La Serena MPS 51695
2002 02 16.37450 13 56 58.17 -11 07 38.8 19.5 V 807 – Cerro Tololo Observatory, La Serena MPS 51695
2002 02 16.38263 13 56 58.27 -11 07 37.5 19.5 V 807 – Cerro Tololo Observatory, La Serena MPS 51695
2002 03 09.41796 13 56 35.66 -09 50 46.5 19.4   704 – Lincoln Laboratory ETS, New Mexico MPS 51695
2002 03 09.43935 13 56 35.33 -09 50 39.1 19.6   704 – Lincoln Laboratory ETS, New Mexico MPS 51695
2002 03 09.46121 13 56 34.99 -09 50 33.9 19.0   704 – Lincoln Laboratory ETS, New Mexico MPS 51695
2002 03 09.48234 13 56 34.63 -09 50 26.6 19.2   704 – Lincoln Laboratory ETS, New Mexico MPS 51695
2002 04 02.49431 13 45 24.62 -07 12 39.0 18.9   644 – Palomar Mountain/NEAT MPS 54538
2002 04 02.50486 13 45 24.20 -07 12 33.9 18.9   644 – Palomar Mountain/NEAT MPS 54538
2002 04 02.51559 13 45 23.76 -07 12 29.3 19.1   644 – Palomar Mountain/NEAT MPS 54538
2002 04 08.28429 13 41 33.07 -06 27 57.5 19.3   644 – Palomar Mountain/NEAT MPS 54538
2002 04 08.36689 13 41 29.53 -06 27 19.0 19.1   644 – Palomar Mountain/NEAT MPS 54538
2002 04 08.43081 13 41 26.81 -06 26 48.7 19.5   644 – Palomar Mountain/NEAT MPS 54538
2002 04 13.27273 13 38 03.36 -05 48 58.9 20.0 V 691 – Steward Observatory, Kitt Peak-Spacewatch MPS 54538
2002 04 13.29361 13 38 02.42 -05 48 49.1 19.8 V 691 – Steward Observatory, Kitt Peak-Spacewatch MPS 54538
2002 04 13.31455 13 38 01.51 -05 48 39.3 19.9 V 691 – Steward Observatory, Kitt Peak-Spacewatch MPS 54538
2002 04 14.32813 13 37 18.34 -05 40 45.5 19.5 V 691 – Steward Observatory, Kitt Peak-Spacewatch MPS 54538
2002 04 14.34901 13 37 17.38 -05 40 35.8 19.5 V 691 – Steward Observatory, Kitt Peak-Spacewatch MPS 54538
2002 04 14.36987 13 37 16.46 -05 40 26.1 19.5 V 691 – Steward Observatory, Kitt Peak-Spacewatch MPS 54538
2002 04 15.22757 13 36 40.04 -05 33 45.5 19.9 V 333 – Desert Eagle Observatory MPS 54538
2002 04 15.25081 13 36 39.05 -05 33 35.9 19.7 V 333 – Desert Eagle Observatory MPS 54538
2002 04 15.27405 13 36 38.01 -05 33 25.4 19.9 V 333 – Desert Eagle Observatory MPS 54538
2002 04 17.33224 13 35 10.15 -05 17 32.5 18.6   704 – Lincoln Laboratory ETS, New Mexico MPS 54538
2002 04 17.34612 13 35 09.53 -05 17 25.5 19.1   704 – Lincoln Laboratory ETS, New Mexico MPS 54538
2002 04 17.37377 13 35 08.32 -05 17 13.2 18.8   704 – Lincoln Laboratory ETS, New Mexico MPS 54538
2002 04 17.38758 13 35 07.77 -05 17 07.0 19.1   704 – Lincoln Laboratory ETS, New Mexico MPS 54538
2002 05 08.34841 13 21 39.90 -02 53 57.2 19.5   644 – Palomar Mountain/NEAT MPS 54422
2002 05 08.36914 13 21 39.20 -02 53 49.9 19.5   644 – Palomar Mountain/NEAT MPS 54422
2002 05 08.38999 13 21 38.53 -02 53 42.5 19.8   644 – Palomar Mountain/NEAT MPS 54422
2002 05 14.21846 13 18 50.67 -02 23 27.3 18.8 R 699 – Lowell Observatory-LONEOS MPS 54422
2002 05 14.23446 13 18 50.26 -02 23 22.9   699 – Lowell Observatory-LONEOS MPS 54422
2002 05 14.25036 13 18 49.81 -02 23 18.5   699 – Lowell Observatory-LONEOS MPS 54422
2002 05 14.26641 13 18 49.39 -02 23 15.1   699 – Lowell Observatory-LONEOS MPS 54422
2002 05 16.22437 13 18 00.84 -02 14 15.3 18.5   704 – Lincoln Laboratory ETS, New Mexico MPS 54422
2002 05 16.26973 13 17 59.64 -02 14 03.3 19.3   704 – Lincoln Laboratory ETS, New Mexico MPS 54422
2002 05 16.28481 13 17 59.26 -02 13 59.0 19.5   704 – Lincoln Laboratory ETS, New Mexico MPS 54422
2002 05 16.33734 13 17 58.19 -02 13 46.0 19.7   608 – Haleakala-AMOS MPS 54422
2002 05 16.34786 13 17 57.91 -02 13 43.0 19.8   608 – Haleakala-AMOS MPS 54422
2002 05 16.35812 13 17 57.62 -02 13 40.3 19.8   608 – Haleakala-AMOS MPS 54422
2004 09 08.49161 01 52 47.35 +10 07 01.3 20.3   644 – Palomar Mountain/NEAT MPS 113182
2004 09 08.50147 01 52 47.24 +10 06 58.3 20.5   644 – Palomar Mountain/NEAT MPS 113182
2004 09 08.51163 01 52 47.07 +10 06 54.8 20.3   644 – Palomar Mountain/NEAT MPS 113182
2004 09 09.44184 01 52 34.98 +10 01 57.1 19.9 V 691 – Steward Observatory, Kitt Peak-Spacewatch MPS 113182
2004 09 09.47025 01 52 34.55 +10 01 47.7 19.9 V 691 – Steward Observatory, Kitt Peak-Spacewatch MPS 113182
2004 09 09.50144 01 52 34.07 +10 01 37.6 19.9 V 691 – Steward Observatory, Kitt Peak-Spacewatch MPS 113182
2004 09 15.42745 01 50 50.10 +09 26 59.9 19.1 V 691 – Steward Observatory, Kitt Peak-Spacewatch MPS 113786
2004 09 15.45624 01 50 49.44 +09 26 49.1 19.1 V 691 – Steward Observatory, Kitt Peak-Spacewatch MPS 113786
2004 09 15.48626 01 50 48.77 +09 26 37.8 19.1 V 691 – Steward Observatory, Kitt Peak-Spacewatch MPS 113786
2004 09 17.32926 01 50 07.59 +09 14 51.4 18.9   704 – Lincoln Laboratory ETS, New Mexico MPS 113786
2004 09 17.34102 01 50 07.29 +09 14 46.7 19.0   704 – Lincoln Laboratory ETS, New Mexico MPS 113786
2004 09 17.35278 01 50 07.02 +09 14 42.1 19.1   704 – Lincoln Laboratory ETS, New Mexico MPS 113786
2004 09 17.36451 01 50 06.68 +09 14 37.4 19.3   704 – Lincoln Laboratory ETS, New Mexico MPS 113786
2004 09 17.37625 01 50 06.38 +09 14 33.4 19.4   704 – Lincoln Laboratory ETS, New Mexico MPS 113786
